Hlavní strana
METAR-TAF:

METAR-TAF

Letiště :

Nipawin, Saskatchewan, Kanada

zeměpisná šířka: 53-20N, zeměpisná délka: 104-00W, výška: 372 m

Aktuální stav počasí

Zpráva byla vytvořena před 27 minutami, v 01:00 UTC
Jihojihovýchodní vítr 6 kt
Teplota -13°C
Vlhkost vzduchu 85%
Tlak 1020 hPa
Viditelnost: 14.5 km
Zataženo ve výšce 2900 ft

METAR: CYBU 060100Z AUTO 15006KT 9SM OVC029 M13/M15 A3013 RMK SLP239

Čas: 19:27 (01:27 UTC)


TAF: chybějící

Stav a předpovědi počasí z více než 4 000 letišť (zprávy METAR a TAF).

Červené a žluté tečky na mapě představují dostupné meteorologické stanice.

Když kurzor umístíte na tečku, zobrazí se název stanice.

Pak kliknutím zobrazíte stav a předpověď počasí.

Chcete-li změnit mapu, kliknutím na zelené tlačítko se znaménkem +mapu přiblížíte, kliknutím na zelené tlačítko se znaménkem – mapu oddálíte a kliknutím na zelené šipky přejdete na sousední mapy.


METAR-TAF: